• In Österreich
  • Länderverzeichnis
  • Für 7 Tage
  • Wassertemperatur
  • Satellitenkarten
  • Wetterkarte
  • News
  • Widgets
  • user-avatar
    Anmelden

    Stündliche Wetter Silistra

    Heute, 21 Mai, Montag

    Zeit Temperatur Niederschläge Wind Luftdruck Luftfeuchtigkeit
    00:00 +16°C° 0 mm 2 m/S 759 mmHg 79%
    01:00 +16°C° 0 mm 3 m/S 759 mmHg 83%
    02:00 +14°C° 0 mm 3 m/S 759 mmHg 84%
    03:00 +14°C° 0 mm 3 m/S 759 mmHg 87%
    04:00 +13°C° 0 mm 3 m/S 759 mmHg 89%
    05:00 +13°C° 0 mm 3 m/S 759 mmHg 92%
    06:00 +16°C° 0 mm 3 m/S 759 mmHg 86%
    07:00 +17°C° 0 mm 4 m/S 760 mmHg 81%
    08:00 +19°C° 0 mm 5 m/S 760 mmHg 74%
    09:00 +20°C° 0,2 mm 5 m/S 760 mmHg 70%
    10:00 +21°C° 0,2 mm 5 m/S 760 mmHg 66%
    11:00 +22°C° 0,2 mm 6 m/S 760 mmHg 61%
    12:00 +23°C° 0,2 mm 6 m/S 760 mmHg 61%
    13:00 +23°C° 0,2 mm 6 m/S 760 mmHg 60%
    14:00 +23°C° 0,2 mm 6 m/S 759 mmHg 59%
    15:00 +23°C° 0 mm 6 m/S 759 mmHg 59%
    16:00 +22°C° 0 mm 6 m/S 759 mmHg 60%
    17:00 +22°C° 0 mm 6 m/S 759 mmHg 61%
    18:00 +20°C° 0 mm 5 m/S 759 mmHg 67%
    19:00 +18°C° 0 mm 4 m/S 759 mmHg 73%
    20:00 +16°C° 0 mm 3 m/S 759 mmHg 80%
    21:00 +14°C° 0 mm 3 m/S 759 mmHg 81%
    22:00 +14°C° 0 mm 2 m/S 760 mmHg 83%
    23:00 +14°C° 0 mm 2 m/S 760 mmHg 85%

    Morgen, 22 Mai, Dienstag

    Zeit Temperatur Niederschläge Wind Luftdruck Luftfeuchtigkeit
    00:00 +13°C° 0 mm 2 m/S 760 mmHg 84%
    01:00 +13°C° 0 mm 2 m/S 760 mmHg 84%
    02:00 +13°C° 0 mm 2 m/S 759 mmHg 83%
    03:00 +12°C° 0 mm 1 m/S 759 mmHg 83%
    04:00 +12°C° 0 mm 1 m/S 759 mmHg 83%
    05:00 +12°C° 0 mm 1 m/S 759 mmHg 82%
    06:00 +14°C° 0 mm 2 m/S 760 mmHg 76%
    07:00 +16°C° 0 mm 2 m/S 760 mmHg 69%
    08:00 +18°C° 0 mm 3 m/S 760 mmHg 63%
    09:00 +20°C° 0 mm 3 m/S 760 mmHg 59%
    10:00 +22°C° 0 mm 3 m/S 760 mmHg 55%
    11:00 +24°C° 0 mm 3 m/S 760 mmHg 51%
    12:00 +25°C° 0 mm 3 m/S 760 mmHg 50%
    13:00 +26°C° 0 mm 4 m/S 760 mmHg 49%
    14:00 +27°C° 0 mm 4 m/S 760 mmHg 48%
    15:00 +26°C° 0 mm 4 m/S 760 mmHg 51%
    16:00 +26°C° 0 mm 4 m/S 760 mmHg 54%
    17:00 +25°C° 0 mm 5 m/S 759 mmHg 57%
    18:00 +22°C° 0 mm 4 m/S 760 mmHg 66%
    19:00 +20°C° 0 mm 4 m/S 760 mmHg 74%
    20:00 +18°C° 0 mm 3 m/S 760 mmHg 82%
    21:00 +17°C° 0 mm 3 m/S 760 mmHg 85%
    22:00 +17°C° 0 mm 2 m/S 760 mmHg 87%
    23:00 +16°C° 0 mm 2 m/S 761 mmHg 89%

    übermorgen, 23 Mai, Mittwoch

    Zeit Temperatur Niederschläge Wind Luftdruck Luftfeuchtigkeit
    00:00 +15°C° 0 mm 2 m/S 760 mmHg 89%
    01:00 +15°C° 0 mm 2 m/S 760 mmHg 89%
    02:00 +14°C° 0 mm 2 m/S 760 mmHg 89%
    03:00 +14°C° 0 mm 1 m/S 760 mmHg 88%
    04:00 +14°C° 0 mm 1 m/S 760 mmHg 88%
    05:00 +14°C° 0 mm 1 m/S 760 mmHg 88%
    06:00 +16°C° 0 mm 1 m/S 760 mmHg 80%
    07:00 +19°C° 0 mm 1 m/S 760 mmHg 71%
    08:00 +20°C° 0 mm 2 m/S 760 mmHg 63%
    09:00 +23°C° 0 mm 2 m/S 760 mmHg 58%
    10:00 +24°C° 0 mm 2 m/S 760 mmHg 53%
    11:00 +26°C° 0 mm 3 m/S 760 mmHg 49%
    12:00 +27°C° 0 mm 3 m/S 760 mmHg 47%
    13:00 +27°C° 0 mm 3 m/S 760 mmHg 45%
    14:00 +28°C° 0 mm 3 m/S 759 mmHg 44%
    15:00 +28°C° 0 mm 3 m/S 759 mmHg 45%
    16:00 +27°C° 0 mm 3 m/S 759 mmHg 46%
    17:00 +27°C° 0 mm 3 m/S 758 mmHg 48%
    18:00 +25°C° 0 mm 3 m/S 758 mmHg 55%
    19:00 +22°C° 0 mm 3 m/S 758 mmHg 62%
    20:00 +20°C° 0 mm 2 m/S 758 mmHg 69%
    21:00 +19°C° 0 mm 2 m/S 758 mmHg 71%
    22:00 +18°C° 0 mm 2 m/S 758 mmHg 73%
    23:00 +18°C° 0 mm 1 m/S 758 mmHg 74%

    24 Mai, Donnerstag

    Zeit Temperatur Niederschläge Wind Luftdruck Luftfeuchtigkeit
    00:00 +16°C° 0 mm 1 m/S 758 mmHg 74%
    01:00 +16°C° 0 mm 1 m/S 758 mmHg 74%
    02:00 +16°C° 0 mm 1 m/S 757 mmHg 74%
    03:00 +15°C° 0 mm 1 m/S 757 mmHg 75%
    04:00 +15°C° 0 mm 1 m/S 757 mmHg 76%
    05:00 +15°C° 0 mm 1 m/S 757 mmHg 76%
    06:00 +18°C° 0 mm 1 m/S 757 mmHg 70%
    07:00 +20°C° 0 mm 1 m/S 757 mmHg 64%
    08:00 +21°C° 0 mm 2 m/S 757 mmHg 58%
    09:00 +24°C° 0 mm 2 m/S 757 mmHg 54%
    10:00 +26°C° 0 mm 3 m/S 757 mmHg 49%
    11:00 +27°C° 0 mm 3 m/S 757 mmHg 45%
    12:00 +28°C° 0 mm 3 m/S 756 mmHg 45%
    13:00 +28°C° 0 mm 3 m/S 756 mmHg 45%
    14:00 +28°C° 0 mm 3 m/S 756 mmHg 45%
    15:00 +28°C° 0 mm 3 m/S 755 mmHg 45%
    16:00 +28°C° 0 mm 3 m/S 755 mmHg 44%
    17:00 +28°C° 0 mm 3 m/S 755 mmHg 44%
    18:00 +26°C° 0 mm 2 m/S 755 mmHg 49%
    19:00 +24°C° 0 mm 2 m/S 755 mmHg 54%
    20:00 +21°C° 0 mm 2 m/S 755 mmHg 59%
    21:00 +21°C° 0 mm 2 m/S 755 mmHg 60%
    22:00 +20°C° 0 mm 2 m/S 755 mmHg 62%
    23:00 +19°C° 0 mm 2 m/S 755 mmHg 63%

    25 Mai, Freitag

    Zeit Temperatur Niederschläge Wind Luftdruck Luftfeuchtigkeit
    00:00 +19°C° 0 mm 2 m/S 755 mmHg 65%
    01:00 +18°C° 0 mm 2 m/S 754 mmHg 67%
    02:00 +18°C° 0 mm 3 m/S 754 mmHg 68%
    03:00 +18°C° 0 mm 3 m/S 754 mmHg 71%
    04:00 +17°C° 0 mm 3 m/S 754 mmHg 73%
    05:00 +17°C° 0 mm 3 m/S 754 mmHg 75%
    06:00 +19°C° 0,1 mm 4 m/S 754 mmHg 74%
    07:00 +20°C° 0,1 mm 5 m/S 754 mmHg 72%
    08:00 +22°C° 0,1 mm 6 m/S 754 mmHg 71%
    09:00 +23°C° 0,8 mm 6 m/S 754 mmHg 70%
    10:00 +23°C° 0,8 mm 7 m/S 754 mmHg 69%
    11:00 +24°C° 0,8 mm 7 m/S 754 mmHg 69%
    12:00 +24°C° 1,2 mm 7 m/S 754 mmHg 68%
    13:00 +24°C° 1,2 mm 7 m/S 754 mmHg 67%
    14:00 +24°C° 1,2 mm 7 m/S 754 mmHg 66%
    15:00 +24°C° 1,2 mm 6 m/S 754 mmHg 67%
    16:00 +25°C° 1,2 mm 5 m/S 754 mmHg 69%
    17:00 +25°C° 1,2 mm 4 m/S 754 mmHg 70%
    18:00 +23°C° 1,2 mm 4 m/S 754 mmHg 74%
    19:00 +22°C° 1,2 mm 4 m/S 754 mmHg 79%
    20:00 +20°C° 1,2 mm 4 m/S 754 mmHg 83%
    21:00 +20°C° 0,4 mm 4 m/S 755 mmHg 85%
    22:00 +19°C° 0,4 mm 4 m/S 755 mmHg 87%
    23:00 +19°C° 0,4 mm 4 m/S 755 mmHg 89%

    26 Mai, Samstag

    Zeit Temperatur Niederschläge Wind Luftdruck Luftfeuchtigkeit
    00:00 +19°C° 0 mm 4 m/S 755 mmHg 88%
    01:00 +19°C° 0 mm 5 m/S 756 mmHg 88%
    02:00 +17°C° 0 mm 5 m/S 756 mmHg 88%
    03:00 +17°C° 0,2 mm 5 m/S 756 mmHg 89%
    04:00 +19°C° 0,2 mm 6 m/S 757 mmHg 89%
    05:00 +19°C° 0,2 mm 6 m/S 757 mmHg 90%
    06:00 +18°C° 0,2 mm 7 m/S 758 mmHg 89%
    07:00 +18°C° 0,2 mm 7 m/S 758 mmHg 88%
    08:00 +17°C° 0,2 mm 7 m/S 759 mmHg 88%
    09:00 +18°C° 0 mm 7 m/S 760 mmHg 84%
    10:00 +18°C° 0 mm 8 m/S 760 mmHg 81%
    11:00 +18°C° 0 mm 8 m/S 761 mmHg 77%
    12:00 +20°C° 0 mm 8 m/S 761 mmHg 71%
    13:00 +21°C° 0 mm 8 m/S 761 mmHg 64%
    14:00 +22°C° 0 mm 8 m/S 762 mmHg 58%
    15:00 +21°C° 0 mm 8 m/S 762 mmHg 56%
    16:00 +21°C° 0 mm 8 m/S 762 mmHg 54%
    17:00 +21°C° 0 mm 8 m/S 762 mmHg 53%
    18:00 +18°C° 0 mm 7 m/S 763 mmHg 56%
    19:00 +16°C° 0 mm 6 m/S 763 mmHg 58%
    20:00 +15°C° 0 mm 5 m/S 764 mmHg 61%
    21:00 +14°C° 0 mm 4 m/S 764 mmHg 62%
    22:00 +13°C° 0 mm 4 m/S 764 mmHg 62%
    23:00 +12°C° 0 mm 4 m/S 765 mmHg 63%
    Mehr zeigen